Location: Moosonee
(51.2731°N, 80.6400°W)
Time: 19:42:20
(UTC-04:00)

ISS - Visible Passes

Search period start: 22 July 2019 00:00
Search period end: 01 August 2019 00:00
Orbit: 409 x 418 km, 51.6° (Epoch: 23 July)

Date Brightness Start Highest point End Pass type
(mag) Time Alt. Az. Time Alt. Az. Time Alt. Az.
22 Jul -3.8 00:01:22 10° W 00:04:42 82° N 00:07:44 12° E visible
22 Jul -3.1 01:38:05 10° W 01:40:31 40° WSW 01:40:31 40° WSW visible
22 Jul -3.7 23:12:03 10° W 23:15:24 83° N 23:18:44 10° E visible
23 Jul -3.9 00:48:46 10° W 00:52:07 70° SSW 00:52:23 65° SSE visible
23 Jul -3.8 22:22:43 10° W 22:26:04 89° NNW 22:29:26 10° E visible
23 Jul -3.9 23:59:27 10° W 00:02:49 85° SSW 00:04:23 29° ESE visible
24 Jul -1.6 01:36:18 10° W 01:37:11 16° W 01:37:11 16° W visible
24 Jul -3.8 23:10:08 10° W 23:13:29 85° N 23:16:28 13° E visible
25 Jul -2.9 00:46:52 10° W 00:49:16 35° WSW 00:49:16 35° WSW visible
25 Jul -3.7 22:20:47 10° W 22:24:09 82° N 22:27:29 10° E visible
25 Jul -3.7 23:57:30 10° W 00:00:49 58° SSW 00:01:24 48° SSE visible
26 Jul -3.9 23:08:08 10° W 23:11:30 75° SSW 23:13:33 21° ESE visible
27 Jul -1.7 00:45:07 10° W 00:46:22 17° WSW 00:46:22 17° WSW visible
27 Jul -3.8 22:18:47 10° W 22:22:09 88° SSW 22:25:30 10° E visible
27 Jul -2.9 23:55:35 10° W 23:58:33 33° SSW 23:58:33 33° SSW visible
28 Jul -3.4 23:06:08 10° W 23:09:22 46° SSW 23:10:46 27° SSE visible
29 Jul -3.7 22:16:44 10° W 22:20:03 63° SSW 22:23:01 12° ESE visible
29 Jul -1.8 23:53:56 10° W 23:55:50 18° SW 23:55:50 18° SW visible
30 Jul -2.4 23:04:14 10° W 23:07:05 26° SSW 23:08:06 22° S visible
31 Jul -2.9 22:14:42 10° W 22:17:49 37° SSW 22:20:24 14° SE visible
